Location: Marcé
(47.5801°N, 0.3280°W)
Time: 23:25:49
(UTC+01:00)

S-56A Canister/Altair - Pass Details

Date: 04 December 2021
Orbit: 633 x 2499 km, 38.9° (Epoch: 16 January)

Event Time Altitude Azimuth Distance (km) Brightness Sun altitude
Rises 00:05:38 0° 218° (SW) 5,410 - -63.0°
Reaches altitude 10° 00:10:17 10° 207° (SSW) 4,090 - -63.3°
Maximum altitude 00:18:10 26° 158° (SSE) 2,460 - -63.8°
Drops below altitude 10° 00:24:01 10° 105° (ESE) 2,962 - -64.1°
Sets 00:26:47 0° 92° (E) 3,683 - -64.2°
